{"data":{"norad_id":68881,"intl_designator":"2026-095T","name":"KUIPER-00499","alt_names":[],"object_type":"PAYLOAD","status":"ACTIVE","operator":null,"country":"US","launch_date":"2026-04-28","launch_site_code":"AFETR","launch_vehicle":null,"mission":null,"orbit_class":"UNKNOWN","rcs_meters":null,"size_class":null,"mass_kg":null,"dimensions":null,"purposes":[],"wikipedia_slug":null,"has_3d_model":false,"image_url":null,"decayed_at":null,"tle_current":{"epoch":"2026-09-20T01:31:42.344256Z","epoch_age_seconds":53311,"freshness":"FRESH","line1":"1 68881U 26095T   26263.06368454  .00004234  00000+0  58378-3 0  9994","line2":"2 68881  51.8983 173.6680 0001139  75.2039 284.9050 14.79955297 21906","mean_motion":14.79955297,"eccentricity":0.0001139,"inclination_deg":51.8983,"raan_deg":173.668,"arg_perigee_deg":75.2039,"mean_anomaly_deg":284.905,"bstar":0.00058378,"rev_number":2190,"period_min":97.300236224635,"perigee_km":628.66707805931,"apogee_km":630.26340985049,"semimajor_km":7007.6022439549,"source":"CELESTRAK","updated_at":"2026-09-20T09:00:24.538585Z"}}}